Home   Weather   Yuzhno-Sakhalinsk   Past weeks

Flag for Russia Past Weather in Yuzhno-Sakhalinsk, Russia — Yesterday and Last 2 Weeks

Now
21 °F

Clear.


Feels Like: 21 °F
Forecast: 13 / 31 °F
Wind: 1 mph from Southeast

Location: Yuzhno Airport-Sakhalinsk

Current Time: Feb 22, 2017 at 10:01:07 pm

Latest Report: Feb 22, 2017 at 9:00 pm


Visibility: N/A

Pressure: 29.92 "Hg

Humidity: 63%

Dew Point: 10 °F

Location of Yuzhno-SakhalinskLocation

Past Weather in Yuzhno-Sakhalinsk — Graph

°F

Yuzhno-Sakhalinsk Temperature Yesterday

Maximum temperature yesterday: 23 °F (at 3:30 pm)
Minimum temperature yesterday: -15 °F (at 8:00 am)
Average temperature yesterday: 9 °F

High & Low Weather Summary for the Past Weeks

 TemperatureHumidityPressure
High32 °F (Feb 10, 2:30 pm)100% (Feb 10, 2:30 am)30.15 "Hg (Feb 10, 2:30 am)
Low-15 °F (Feb 21, 8:00 am)46% (Feb 22, 3:30 pm)29.42 "Hg (Feb 17, 3:00 pm)
Average19 °F78%29.76 "Hg
* Reported Feb 7 9:00 pm — Feb 22 9:00 pm, Yuzhno-Sakhalinsk, Weather by CustomWeather, © 2017

Note: Actual official high and low records may vary slightly from our data, if they occured in-between our weather recording intervals... More about our weather records

Advertising

Yuzhno-Sakhalinsk Weather History for the Previous 24 Hours

Scroll right to see more
 ConditionsComfort  
Time TempWeatherWind HumidityBarometerVisibility
9:00 pm
Wed, Feb 22
21 °FClear.1 mph63%29.92 "HgN/A
8:30 pm23 °FClear.1 mph58%29.92 "HgN/A
8:00 pm25 °FClear.1 mph54%29.92 "HgN/A
7:30 pm25 °FClear.3 mph54%29.95 "HgN/A
7:00 pm25 °FPassing clouds.8 mph54%29.95 "HgN/A
6:30 pm25 °FScattered clouds.8 mph54%29.95 "HgN/A
6:00 pm27 °FScattered clouds.8 mph54%29.95 "HgN/A
5:30 pm25 °FClear.6 mph59%29.95 "HgN/A
5:00 pm27 °FClear.8 mph54%29.95 "HgN/A
4:30 pm27 °FClear.8 mph50%29.95 "HgN/A
4:00 pm27 °FClear.8 mph50%29.95 "HgN/A
3:30 pm27 °FClear.8 mph46%29.98 "HgN/A
3:00 pm27 °FClear.8 mph50%29.98 "HgN/A
2:30 pm27 °FClear.6 mph50%30.01 "HgN/A
2:00 pm25 °FClear.3 mph54%30.01 "HgN/A
1:30 pm23 °FClear.3 mph54%30.04 "HgN/A
1:00 pm23 °FClear.1 mph54%30.04 "HgN/A
12:30 pm19 °FClear.No wind53%30.07 "HgN/A
12:00 pm19 °FClear.1 mph53%30.07 "Hg6 mi
11:30 am18 °FClear.No wind58%30.09 "Hg3 mi
11:00 am7 °FClear.1 mph85%30.09 "Hg2 mi
10:30 am3 °FClear.1 mph92%30.09 "Hg2 mi
10:00 am1 °FClear.1 mph85%30.09 "Hg1 mi
9:30 am-2 °FClear.1 mph84%30.09 "Hg2 mi
9:00 am-8 °FClear.3 mph84%30.09 "Hg4 mi
8:30 am-11 °FClear.No wind84%30.09 "Hg4 mi
8:00 am-9 °FClear.No wind84%30.09 "Hg4 mi
7:30 am-11 °FClear.1 mph84%30.09 "Hg3 mi
7:00 am-13 °FPassing clouds.3 mph83%30.09 "Hg6 mi
6:30 am-9 °FPassing clouds.No wind84%30.09 "HgN/A
6:00 am-8 °FPassing clouds.1 mph84%30.07 "HgN/A
5:00 am-8 °FPassing clouds.1 mph77%30.07 "HgN/A
4:00 am-8 °FPassing clouds.3 mph84%30.07 "HgN/A
3:00 am-6 °FPassing clouds.3 mph92%30.07 "HgN/A
2:00 am-2 °FPassing clouds.1 mph84%30.07 "HgN/A
1:00 am1 °FPassing clouds.1 mph85%30.04 "HgN/A
12:00 am9 °FPassing clouds.3 mph78%30.01 "HgN/A
11:00 pm
Tue, Feb 21
12 °FPassing clouds.8 mph73%30.01 "HgN/A
10:30 pm14 °FPassing clouds.8 mph73%30.01 "HgN/A
10:00 pm14 °FPassing clouds.8 mph73%29.98 "HgN/A
Weather by CustomWeather, © 2017

See weather overviewHow to use our weather pages